CZ-6A R/B, 64288

Orbit data source: Space-Track

CZ-6A R/B, 64288 is space debris in LEO originally from a launch on Thu, 05 Jun 2025 UTC launched from the Taiyaun Space Center, China (TSC). Debris objects in space refer to the collection of defunct objects orbiting the Earth. Examples of debris include non-operational satellites, rocket bodies, and fragments generated from explosions, collisions, or faulty payload assembly.

Loading next visibility...
Identifier
64288, 2025-121F
Orbit
LEO
Last TLE update
11 hours ago
Origin
Flag of CNCNSA (CN / PRC)
Manufacturer
SAST
Mission
Spacecraft
Bus & Motor
CZ-6A STAGE 2, YF-115
Mass
~6,000 kg wet, ~6,000 kg dry
Launch date (UTC)
2025-06-05 (2 weeks ago)
Launch vehicle
Unknown
Launch site
Taiyaun Space Center, China (TSC)
Object type
Payload
Rocket body
Debris
Shape & HBR
Unknown
Radar Cross Section
Large (>1 m²)

Expand to show TLE details & history

TLE from 11 hours ago
0 CZ-6A R/B
1 64288U 25121F   25169.83323661  .00000021  00000-0  19255-5 0  9994
2 64288  86.5087 137.7286 0104296  75.4638 285.8077 13.94024908  1810
Epoch: 2025-06-18T19:59Z
TLE epoch observation values (Epoch: 2025-06-18T19:59:51.643Z)
Latitude
0.00001°
Longitude
-69.54618°
Altitude
897.569 km
Speed
7.413 km/s
True Right ascension
09h 10m 54s
True Declination
0° 00' 00"
Sunlit
Object was in daylight at epoch
Visualization orbit readout
Latitude
81.71426°
Longitude
-45.08766°
Altitude
852.851 km
Speed
7.471 km/s
Apparent Right ascension
06h 19m 14s
Apparent Declination
30° 28' 38"
Sunlit
Object is in daylight
Visualization observer readout
Local Sidereal Time
17:33:48
Azimuth
349.671° N
Elevation
-18.821°
Doppler factor
1
Orbital elements
Apogee altitude
987.607 km
Perigee altitude
835.55 km
Semi-major axis
7,289.716 km
Eccentricity
0.01043
Inclination
86.5087°
RAAN
137.7286°
Arg. of periapsis
75.4638°
True anomaly
Unknown
Mean anomaly
285.8077°
Eccentric anomaly
Unknown
Mean motion
3.4872 °/min
Orbital period
103.23 mins
BSTAR
0.0000019255
Loading maneuver chart data...
Loading SW <> Apogee altitude chart data...
Loading historical data...
Loading historical data...
Loading historical data...
Loading historical data...
Loading historical data...
Loading historical data...
Loading historical data...

CZ-6A R/B Visibility forecast

Observer location: undefined°, undefined°

Span
Click to sort rows by Start time (UTC) header in descending order
Start Az.
Max El. time (UTC)
Max El. Az.
Max El.
End time (UTC)
End Az.
6 mins2025-06-19 08:39:16.957Z40.935° NE2025-06-19 08:42:16.957Z75.336° E15.989°2025-06-19 08:45:16.957Z109.079° ESE
9 mins2025-06-19 10:22:16.957Z346.601° N2025-06-19 10:26:16.957Z270.529° WNW41.428°2025-06-19 10:31:16.957Z193.747° SSW
9 mins2025-06-19 21:57:16.957Z158.746° S2025-06-19 22:01:16.957Z99.576° ESE38.094°2025-06-19 22:06:16.957Z14.442° NNE
5 mins2025-06-19 23:43:16.957Z255.517° W2025-06-19 23:45:16.957Z281.006° WNW17.589°2025-06-19 23:48:16.957Z318.706° NNW
|